CST,Max TemperatureF,Mean TemperatureF,Min TemperatureF,Max Dew PointF,MeanDew PointF,Min DewpointF,Max Humidity, Mean Humidity, Min Humidity, Max Sea Level PressureIn, Mean Sea Level PressureIn, Min Sea Level PressureIn, Max VisibilityMiles, Mean VisibilityMiles, Min VisibilityMiles, Max Wind SpeedMPH, Mean Wind SpeedMPH, Max Gust SpeedMPH,PrecipitationIn, CloudCover, Events, WindDirDegrees
2012-11-1,87,70,54,54,48,45,84,52,24,30.04,29.97,29.90,10,9,3,8,2,,0.00,0,,214
2012-11-2,87,72,57,60,53,47,81,54,31,29.98,29.92,29.86,10,10,10,15,6,22,0.00,0,,188
2012-11-3,82,72,61,63,58,44,97,66,45,30.08,30.00,29.92,10,10,10,13,8,21,0.00,1,,251
2012-11-4,75,63,53,44,41,37,62,49,28,30.15,30.09,30.03,10,10,10,9,6,,0.00,0,,352
2012-11-5,75,62,50,48,41,34,89,52,27,30.11,30.05,30.00,10,10,10,16,4,23,0.00,0,,346
2012-11-6,75,60,44,45,40,36,81,55,27,30.17,30.10,30.03,10,10,9,7,4,,0.00,0,,345
2012-11-7,73,60,46,46,40,34,86,51,25,30.19,30.11,30.06,10,10,10,9,4,,0.00,0,,76
2012-11-8,80,67,54,59,51,41,70,56,42,30.08,30.00,29.93,10,10,10,21,12,30,0.00,0,,158
2012-11-9,82,73,64,63,60,54,90,67,41,30.01,29.95,29.87,10,10,10,24,19,39,0.00,1,,177
2012-11-10,80,73,66,63,61,58,88,71,47,29.96,29.88,29.78,10,10,10,29,21,36,0.00,4,,175
2012-11-11,73,59,42,64,55,35,90,74,47,30.27,29.90,29.73,10,10,4,22,16,34,0.01,7,Rain,240
2012-11-12,55,44,33,32,25,19,79,53,25,30.52,30.45,30.31,10,10,10,13,7,18,0.00,0,,7
2012-11-13,57,45,33,32,25,22,89,48,26,30.52,30.43,30.35,10,10,6,13,4,17,0.00,2,,124
2012-11-14,61,49,37,33,29,23,79,47,23,30.43,30.35,30.27,10,10,9,8,3,,0.00,1,,128
2012-11-15,64,52,41,35,33,30,67,51,33,30.35,30.28,30.21,10,10,10,10,4,,0.00,1,,124
2012-11-16,63,51,39,37,33,30,83,54,29,30.43,30.36,30.32,10,10,7,7,3,,0.00,0,,84
2012-11-17,64,50,37,36,32,29,89,54,27,30.41,30.33,30.27,10,9,6,8,3,,0.00,0,,131
2012-11-18,69,56,43,37,35,30,66,46,29,30.29,30.23,30.17,10,10,10,16,8,24,0.00,2,,146
2012-11-19,73,64,55,55,51,36,83,66,47,30.21,30.15,30.09,10,10,9,14,8,20,0.00,3,,167
2012-11-20,79,64,50,58,53,50,100,74,39,30.19,30.15,30.11,10,8,4,8,3,,0.00,0,,94
2012-11-21,79,64,48,57,49,45,96,66,32,30.26,30.17,30.09,10,9,7,13,4,17,0.00,0,,166
2012-11-22,77,66,54,56,52,47,83,65,45,30.11,30.05,29.97,10,10,10,21,10,31,0.00,0,,174
2012-11-23,66,56,44,54,33,20,87,45,20,30.44,30.32,30.09,10,10,9,23,10,37,0.00,2,,14
2012-11-24,60,47,34,25,22,19,67,40,20,30.43,30.29,30.08,10,10,8,10,6,,0.00,0,,155
2012-11-25,75,60,45,54,38,24,72,44,30,30.07,29.92,29.81,10,10,10,16,10,23,0.00,0,,176
2012-11-26,72,60,48,59,47,33,100,68,37,30.27,30.00,29.84,10,10,6,21,12,30,0.00,2,,289
2012-11-27,50,44,37,38,33,27,96,68,55,30.46,30.36,30.28,10,10,7,17,10,22,0.00,3,,344
2012-11-28,66,50,35,41,38,35,100,68,33,30.43,30.33,30.25,10,8,4,15,5,17,0.00,0,,154
2012-11-29,68,55,42,49,42,36,89,65,32,30.24,30.16,30.08,10,10,6,15,9,21,0.00,0,,161
2012-11-30,77,64,51,60,57,49,100,81,50,30.13,30.06,29.98,10,8,5,17,10,24,0.00,2,,171